Spokane Fairchild, WA
on Tuesday, December 18, 2012

Tuesday
Previous Day Next Day
Daily Summary
 ActualAverage (KGEG)Record (KGEG)
Temperature
Mean Temperature °F 26°F  
Max Temperature 32°F 31°F 57°F (1917)
Min Temperature 21°F 22°F -12°F (1984)
Degree Days
Heating Degree Days 38 38  
Month to date heating degree days 667  
Since 1 July heating degree days 2334  
Cooling Degree Days 0 0  
Month to date cooling degree days 0  
Year to date cooling degree days 450  
Moisture
Dew Point 26°F   
Average Humidity 100    
Maximum Humidity 100    
Minimum Humidity 93    
Precipitation
Precipitation 0.00 in 0.07 in 1.24 in (1951)
Month to date precipitation 1.40  
Year to date precipitation 15.66  
Snow
Snow 0.00 in 0.50 in 11.10 in (2008)
Month to date snowfall 7.8  
Since 1 July snowfall 15.3  
Snow Depth 2.00 in   
Wind
Wind Speed 11 mph   
Max Wind Speed 18 mph   
Max Gust Speed 25 mph   
Visibility 10 miles   
Events Snow   

Key: T is trace of precipitation, MM is missing value
Source: NWS Daily Summary
Time(PST)TemperatureDew PointHumidity Pressure Visibility Wind DirectionWind SpeedGust SpeedPrecipitationEvents Conditions
12:05 AM 24.8°F 24.8°F 100% 29.74 in 10.0 miles SSW 15.0 mph 20.7 mph N/A   Freezing Rain
12:23 AM 24.8°F 24.8°F 100% 29.75 in 10.0 miles SSW 18.4 mph 21.9 mph N/A Snow Light Snow
12:54 AM 24.8°F 24.8°F 100% 29.76 in 10.0 miles SSW 16.1 mph 25.3 mph N/A   Clear
12:58 AM 25.0°F 25.0°F 100% 29.84 in 10.0 miles SSW 15.0 mph 25.3 mph 0.00 in   Clear
1:58 AM 23.7°F 23.7°F 100% 29.86 in 10.0 miles SSW 12.7 mph - N/A   Clear
2:14 AM 23.0°F 23.0°F 100% 29.79 in 10.0 miles South 11.5 mph - N/A   Partly Cloudy
2:34 AM 23.0°F 23.0°F 100% 29.80 in 10.0 miles South 10.4 mph - N/A   Mostly Cloudy
2:54 AM 23.0°F 23.0°F 100% 29.80 in 10.0 miles SSW 13.8 mph - N/A   Mostly Cloudy
2:58 AM 23.9°F 23.9°F 100% 29.88 in 10.0 miles SSW 12.7 mph - N/A   Mostly Cloudy
3:03 AM 23.0°F 23.0°F 100% 29.80 in 10.0 miles South 12.7 mph - N/A   Scattered Clouds
3:09 AM 23.0°F 23.0°F 100% 29.79 in 10.0 miles South 13.8 mph - N/A   Scattered Clouds
3:19 AM 23.0°F 23.0°F 100% 29.79 in 10.0 miles South 11.5 mph - N/A   Partly Cloudy
3:32 AM 23.0°F 23.0°F 100% 29.79 in 10.0 miles South 12.7 mph - N/A   Clear
3:58 AM 23.0°F 23.0°F 100% 29.87 in 10.0 miles SSW 15.0 mph - 0.00 in   Clear
4:30 AM 23.0°F 23.0°F 100% 29.79 in 10.0 miles SSW 16.1 mph - N/A   Clear
4:48 AM 23.0°F 23.0°F 100% 29.80 in 10.0 miles SSW 12.7 mph - N/A   Partly Cloudy
4:58 AM 22.8°F 22.8°F 100% 29.88 in 10.0 miles SSW 15.0 mph 21.9 mph 0.00 in   Partly Cloudy
5:19 AM 23.0°F 23.0°F 100% 29.80 in 10.0 miles SSW 11.5 mph - N/A   Clear
5:26 AM 23.0°F 23.0°F 100% 29.81 in 10.0 miles SSW 12.7 mph - N/A   Partly Cloudy
5:28 AM 23.0°F 23.0°F 100% 29.81 in 10.0 miles SSW 12.7 mph - N/A   Partly Cloudy
5:43 AM 23.0°F 23.0°F 100% 29.81 in 10.0 miles SSW 15.0 mph - N/A   Mostly Cloudy
5:58 AM 23.7°F 23.7°F 100% 29.89 in 10.0 miles SSW 15.0 mph - 0.00 in   Mostly Cloudy
6:03 AM 23.0°F 23.0°F 100% 29.82 in 10.0 miles SSW 12.7 mph - N/A   Mostly Cloudy
6:08 AM 23.0°F 23.0°F 100% 29.82 in 10.0 miles SSW 9.2 mph - N/A   Mostly Cloudy
6:24 AM 23.0°F 23.0°F 100% 29.82 in 10.0 miles SSW 13.8 mph - N/A   Overcast
6:46 AM 24.8°F 24.8°F 100% 29.82 in 10.0 miles SSW 15.0 mph - N/A   Mostly Cloudy
6:58 AM 23.0°F 23.0°F 100% 29.91 in 10.0 miles SSW 9.2 mph - N/A   Mostly Cloudy
7:03 AM 23.0°F 23.0°F 100% 29.82 in 10.0 miles SSW 9.2 mph - N/A   Scattered Clouds
7:58 AM 22.8°F 22.8°F 100% 29.91 in 10.0 miles South 8.1 mph - N/A   Clear
8:55 AM 23.0°F 23.0°F 100% 29.84 in 10.0 miles SSW 11.5 mph - N/A   Clear
8:56 AM 23.0°F 23.0°F 100% 29.84 in 10.0 miles South 11.5 mph - N/A   Clear
8:58 AM 23.0°F 23.0°F 100% 29.93 in 10.0 miles South 12.7 mph - N/A   Clear
8:59 AM 23.0°F 23.0°F 100% 29.84 in 10.0 miles SSW 12.7 mph - N/A   Clear
9:16 AM 23.0°F 23.0°F 100% 29.85 in 10.0 miles SSW 9.2 mph - N/A   Clear
9:22 AM 24.8°F 24.8°F 100% 29.85 in 10.0 miles SSW 9.2 mph - N/A   Partly Cloudy
9:33 AM 24.8°F 24.8°F 100% 29.85 in 10.0 miles South 8.1 mph - N/A   Partly Cloudy
9:40 AM 24.8°F 24.8°F 100% 29.85 in 10.0 miles SSW 8.1 mph - N/A   Scattered Clouds
9:41 AM 24.8°F 24.8°F 100% 29.85 in 10.0 miles South 6.9 mph - N/A   Scattered Clouds
9:43 AM 24.8°F 24.8°F 100% 29.85 in 10.0 miles SSW 6.9 mph - N/A   Mostly Cloudy
9:52 AM 24.8°F 24.8°F 100% 29.85 in 10.0 miles SSW 9.2 mph - N/A   Mostly Cloudy
9:58 AM 25.0°F 25.0°F 100% 29.95 in 10.0 miles SSW 8.1 mph - 0.00 in   Mostly Cloudy
10:01 AM 24.8°F 24.8°F 100% 29.86 in 10.0 miles Variable 6.9 mph - N/A   Overcast
10:31 AM 24.8°F 24.8°F 100% 29.86 in 10.0 miles South 4.6 mph - N/A   Scattered Clouds
10:58 AM 25.9°F 25.9°F 100% 29.95 in 10.0 miles South 3.5 mph - 0.00 in   Scattered Clouds
11:08 AM 26.6°F 26.6°F 100% 29.86 in 10.0 miles South 5.8 mph - N/A   Mostly Cloudy
11:16 AM 26.6°F 26.6°F 100% 29.85 in 10.0 miles SSW 4.6 mph - N/A   Mostly Cloudy
11:21 AM 26.6°F 26.6°F 100% 29.85 in 10.0 miles SW 5.8 mph - N/A   Mostly Cloudy
11:25 AM 26.6°F 26.6°F 100% 29.85 in 10.0 miles SW 6.9 mph - N/A   Mostly Cloudy
11:44 AM 28.4°F 28.4°F 100% 29.85 in 10.0 miles SW 6.9 mph - N/A   Overcast
11:54 AM 28.4°F 28.4°F 100% 29.85 in 10.0 miles South 5.8 mph - N/A   Overcast
11:55 AM 28.4°F 28.4°F 100% 29.85 in 10.0 miles South 6.9 mph - N/A   Overcast
11:58 AM 28.4°F 28.4°F 100% 29.94 in 10.0 miles South 5.8 mph - 0.00 in   Overcast
12:12 PM 28.4°F 28.4°F 100% 29.85 in 10.0 miles South 6.9 mph - N/A   Overcast
12:22 PM 30.2°F 30.2°F 100% 29.84 in 10.0 miles South 5.8 mph - N/A   Overcast
12:30 PM 30.2°F 30.2°F 100% 29.84 in 10.0 miles SSW 5.8 mph - N/A   Overcast
12:35 PM 30.2°F 30.2°F 100% 29.84 in 10.0 miles South 6.9 mph - N/A   Overcast
12:49 PM 32.0°F 32.0°F 100% 29.84 in 10.0 miles South 6.9 mph - N/A   Overcast
12:58 PM 30.7°F 30.7°F 100% 29.92 in 10.0 miles South 10.4 mph - 0.00 in   Overcast
12:59 PM 32.0°F 32.0°F 100% 29.84 in 10.0 miles SSW 8.1 mph - N/A   Overcast
1:56 PM 30.2°F 30.2°F 100% 29.84 in 10.0 miles SSW 10.4 mph - N/A   Overcast
1:58 PM 29.7°F 29.7°F 100% 29.93 in 10.0 miles SSW 10.4 mph - 0.00 in   Overcast
2:19 PM 32.0°F 32.0°F 100% 29.84 in 10.0 miles SW 8.1 mph - N/A   Overcast
2:34 PM 30.2°F 30.2°F 100% 29.84 in 10.0 miles SW 9.2 mph - N/A   Freezing Rain
2:36 PM 30.2°F 30.2°F 100% 29.84 in 10.0 miles SW 8.1 mph - N/A   Overcast
2:58 PM 29.3°F 29.3°F 100% 29.93 in 10.0 miles SW 8.1 mph - 0.00 in   Overcast
3:23 PM 28.4°F 28.4°F 100% 29.85 in 10.0 miles SW 6.9 mph - N/A   Overcast
3:26 PM 28.4°F 28.4°F 100% 29.84 in 10.0 miles SW 6.9 mph - N/A   Overcast
3:58 PM 27.9°F 27.9°F 100% 29.94 in 10.0 miles SW 6.9 mph - 0.00 in   Mostly Cloudy
4:58 PM 27.7°F 27.7°F 100% 29.95 in 10.0 miles SW 4.6 mph - N/A   Overcast
5:58 PM 27.5°F 27.5°F 100% 29.97 in 10.0 miles West 5.8 mph - N/A   Overcast
6:58 PM 27.0°F 27.0°F 100% 29.98 in 10.0 miles South 3.5 mph - N/A   Overcast
7:03 PM 26.6°F 26.6°F 100% 29.88 in 10.0 miles South 2.3 mph - N/A   Overcast
7:07 PM 26.6°F 26.6°F 100% 29.88 in 10.0 miles SSE 2.3 mph - N/A   Overcast
7:15 PM 26.6°F 26.6°F 100% 29.88 in 10.0 miles SSW 3.5 mph - N/A   Overcast
7:20 PM 26.6°F 26.6°F 100% 29.88 in 10.0 miles South 3.5 mph - N/A   Overcast
7:58 PM 26.8°F 26.8°F 100% 29.99 in 10.0 miles South 8.1 mph - 0.00 in   Overcast
8:18 PM 24.8°F 24.8°F 100% 29.89 in 10.0 miles SSW 5.8 mph - N/A   Scattered Clouds
8:46 PM 24.8°F 24.8°F 100% 29.89 in 10.0 miles South 6.9 mph - N/A   Mostly Cloudy
8:55 PM 24.8°F 24.8°F 100% 29.89 in 10.0 miles South 6.9 mph - N/A   Mostly Cloudy
8:58 PM 24.8°F 24.8°F 100% 29.99 in 10.0 miles South 5.8 mph - 0.00 in   Overcast
9:58 PM 22.8°F 21.2°F 93% 30.00 in 10.0 miles SSE 6.9 mph - N/A   Partly Cloudy
10:58 PM 21.6°F 21.6°F 100% 30.01 in 10.0 miles South 8.1 mph - N/A   Overcast
11:49 PM 21.2°F 21.2°F 100% 29.92 in 10.0 miles South 10.4 mph - N/A   Overcast
11:58 PM 21.4°F 21.4°F 100% 30.02 in 10.0 miles South 9.2 mph - N/A   Overcast
Moon Phase
Dec. 18 Dec. 20 Dec. 28 Jan. 04 Jan. 11
Sunrise:07:34 AM (PST) Moon Rise:10:53 AM (PST)12/18
Sunset:04:00 PM (PST) Moon Set:10:57 PM (PST)12/18

Copyright © 2014 The Weather Underground, Inc.